Torna al catalogo

COSMOS 397 DEB

AttivoLEO
NORAD 5015·DEBRIS·🇷🇺 Russia

Lanciato Feb 25, 1971 da Baikonur Cosmodrome

Loading…

Prossimi Passaggi (prossime 24 ore)

TLE

AggiornatoSource: Space-Track

Epoca: Sep 14, 2026, 14:19 UTC

1 05015U 71015J   26257.59683751  .00001648  00000-0  47525-3 0  9996
2 05015  65.7084   1.8463 0642361 283.9634  69.0833 13.67602549677015

Traccia COSMOS 397 DEB in tempo reale con AllMySat

Download on the App Store